Change the Weather History Date:

Saturday, February 8, 2014

  Actual Average Record
Temperature  
Mean Temperature 76 °F -  
Max Temperature 85 °F 79 °F 87 °F (2012)
Min Temperature 68 °F 63 °F 59 °F (2000)
Cooling Degree Days 12    
Growing Degree Days 26 (Base 50)    
Moisture  
Dew Point 71 °F    
Average Humidity 81    
Maximum Humidity 100    
Minimum Humidity 65    
Precipitation  
Precipitation 0.59 in 0.05 in - ()
Sea Level Pressure  
Sea Level Pressure 30.07 in    
Wind  
Wind Speed 4 mph ()    
Max Wind Speed 14 mph    
Max Gust Speed -    
Visibility 6.9 miles    
Events Rain    
Averages and records for this station are not official NWS values.
T = Trace of Precipitation, MM = Missing Value Source: Averaged Metar Reports

Daily Weather History Graph

Daily Weather History Graph

Search for Another Location

Airport or City:

Trip Planner

Search our weather history database for the weather conditions in past years. The results will help you decide how hot, cold, wet, or windy it might be!

Date:

Astronomy

Feb. 08, 2014 Rise Set
Actual Time 6:48 AM EST 5:59 PM EST
Civil Twilight 6:25 AM EST 6:23 PM EST
Nautical Twilight 5:58 AM EST 6:50 PM EST
Astronomical Twilight 5:31 AM EST 7:17 PM EST
Moon 1:01 PM EST (2/8) 1:51 AM EST (2/8)
Length of Visible Light 11h 57m
Length of Day
11h 10m
Waxing Gibbous, 68% of the Moon is Illuminated
Feb 8
Waxing Gibbous
Feb 14
Full
Feb 22
Last Quarter
Mar 1
New
Mar 8
First Quarter

Hourly Weather History & Observations

Time (EST) Temp. Heat Index Dew Point Humidity Pressure Visibility Wind Dir Wind Speed Gust Speed Precip Events Conditions
1:00 AM 74 °F - 73 °F 97% 30.09 in 9 mi Calm Calm - -   Scattered Clouds
1:00 AM 73.4 °F - 73.4 °F 100% 30.09 in 6.2 mi Calm Calm - N/A   Partly Cloudy
4:00 AM 75 °F - 73 °F 91% 30.06 in 9 mi ESE 3.5 mph - -   Scattered Clouds
4:00 AM 75.2 °F - 73.4 °F 94% 30.06 in 6.2 mi ESE 3.5 mph - N/A   Partly Cloudy
5:00 AM 75.2 °F - 69.8 °F 83% 30.08 in 6.2 mi ESE 4.6 mph - N/A   Scattered Clouds
6:00 AM 75.2 °F - 69.8 °F 83% 30.09 in 6.2 mi ESE 3.5 mph - N/A   Mostly Cloudy
7:00 AM 75 °F - 73 °F 92% 30.10 in 9 mi SE 3.5 mph - -  
7:00 AM 75.2 °F - 73.4 °F 94% 30.10 in 6.2 mi SE 3.5 mph - N/A   Scattered Clouds
8:00 AM 77.0 °F - 69.8 °F 78% 30.11 in 6.2 mi SSE 4.6 mph - N/A   Scattered Clouds
9:00 AM 78.8 °F - 69.8 °F 74% 30.12 in 6.2 mi SE 8.1 mph - N/A   Scattered Clouds
10:00 AM 81 °F - 74 °F 74% 30.13 in 9 mi SSE 10.4 mph - -   Partly Cloudy
11:00 AM 80.6 °F 83.2 °F 68.0 °F 65% 30.11 in 6.2 mi ESE 10.4 mph - N/A   Scattered Clouds
12:00 PM 80.6 °F 83.9 °F 69.8 °F 70% 30.09 in 6.2 mi SSE 10.4 mph - N/A   Scattered Clouds
1:00 PM 84 °F - 74 °F 65% 30.06 in 9 mi SSE 10.4 mph - -   Partly Cloudy
2:00 PM 80.6 °F 83.2 °F 68.0 °F 65% 30.04 in 6.2 mi SSE 9.2 mph - N/A   Scattered Clouds
3:00 PM 80.6 °F 83.9 °F 69.8 °F 70% 30.02 in 6.2 mi SSE 8.1 mph - N/A   Scattered Clouds
4:00 PM 82 °F - 75 °F 73% 30.01 in 9 mi SE 8.1 mph - -   Partly Cloudy
4:00 PM 82.4 °F 89.5 °F 75.2 °F 79% 30.01 in 6.2 mi SE 8.1 mph - N/A   Scattered Clouds
5:00 PM 80.6 °F 83.9 °F 69.8 °F 70% 30.02 in 6.2 mi SSE 8.1 mph - N/A   Partly Cloudy
6:00 PM 78.8 °F - 69.8 °F 74% 30.03 in 6.2 mi SSE 5.8 mph - N/A   Partly Cloudy
7:00 PM 78 °F - 74 °F 84% 30.04 in 9 mi SSE 3.5 mph - -   Partly Cloudy
7:00 PM 78.8 °F - 73.4 °F 83% 30.04 in 6.2 mi SSE 3.5 mph - N/A   Scattered Clouds
8:00 PM 73.4 °F - 66.2 °F 78% 30.07 in 6.2 mi NNW 9.2 mph - N/A   Scattered Clouds
8:40 PM 69.8 °F - 64.4 °F 83% 30.10 in 5.0 mi WNW 13.8 mph - N/A Rain Heavy Rain Showers
9:00 PM 68.0 °F - 64.4 °F 88% 30.09 in 6.2 mi North 6.9 mph - N/A Rain Light Rain Showers
10:00 PM 70 °F - 68 °F 92% 30.09 in 8 mi NE 1.2 mph - - Rain Light Rain Showers
10:00 PM 69.8 °F - 68.0 °F 94% 30.09 in 6.2 mi Variable 1.2 mph - N/A   Mostly Cloudy
11:00 PM 71.6 °F - 66.2 °F 83% 30.06 in 6.2 mi Calm Calm - N/A   Mostly Cloudy